Clinton, OK

1:02 PM CDT on June 25, 2017 (GMT -0500)
Clinton Municipal

Weather History for KCLK - November, 2012

Change the Weather History Date:

Saturday, November 10, 2012

  Actual Average (KCSM) Record (KCSM)
Temperature  
Mean Temperature 69 °F -  
Max Temperature 78 °F 58 °F 82 °F (2014)
Min Temperature 60 °F 40 °F 30 °F (1997)
Cooling Degree Days 4    
Growing Degree Days 19 (Base 50)    
Moisture  
Dew Point 51 °F    
Average Humidity 55    
Maximum Humidity 72    
Minimum Humidity 36    
Precipitation  
Precipitation 0.00 in - - ()
Sea Level Pressure  
Sea Level Pressure 29.75 in    
Wind  
Wind Speed 20 mph (South)    
Max Wind Speed 31 mph    
Max Gust Speed 38 mph    
Visibility 10 miles    
Events      
Averages and records for this station are not official NWS values.
T = Trace of Precipitation, MM = Missing Value Source: NWS Daily Summary

Daily Weather History Graph

Daily Weather History Graph

Search for Another Location

Airport or City:

Trip Planner

Search our weather history database for the weather conditions in past years. The results will help you decide how hot, cold, wet, or windy it might be!

Date:

Astronomy

Nov. 10, 2012 Rise Set
Actual Time 7:06 AM CST 5:32 PM CST
Civil Twilight 6:39 AM CST 5:59 PM CST
Nautical Twilight 6:09 AM CST 6:29 PM CST
Astronomical Twilight 5:39 AM CST 6:59 PM CST
Moon 3:20 AM CST (11/10) 3:14 PM CST (11/10)
Length of Visible Light 11h 19m
Length of Day
10h 25m
Waning Crescent, 14% of the Moon is Illuminated
Nov 10
Waning Crescent
Nov 13
New
Nov 20
First Quarter
Nov 28
Full
Dec 6
Last Quarter

Hourly Weather History & Observations

Time (CST) Temp. Dew Point Humidity Pressure Visibility Wind Dir Wind Speed Gust Speed Precip Events Conditions
12:15 AM 68.0 °F 50.0 °F 52% 29.82 in 10.0 mi South 20.7 mph 26.5 mph N/A   Clear
12:35 AM 68.0 °F 50.0 °F 52% 29.83 in 10.0 mi SSW 17.3 mph - N/A   Clear
12:55 AM 68.0 °F 50.0 °F 52% 29.83 in 10.0 mi SSW 16.1 mph 23.0 mph N/A   Clear
1:15 AM 68.0 °F 50.0 °F 52% 29.83 in 10.0 mi SSW 18.4 mph - N/A   Clear
1:35 AM 68.0 °F 50.0 °F 52% 29.83 in 10.0 mi South 17.3 mph - N/A   Clear
1:55 AM 66.2 °F 50.0 °F 56% 29.83 in 10.0 mi South 17.3 mph 21.9 mph N/A   Clear
2:15 AM 66.2 °F 50.0 °F 56% 29.82 in 10.0 mi South 17.3 mph 21.9 mph N/A   Clear
2:35 AM 64.4 °F 50.0 °F 59% 29.82 in 10.0 mi South 17.3 mph 21.9 mph N/A   Clear
2:55 AM 64.4 °F 50.0 °F 59% 29.82 in 10.0 mi South 17.3 mph 23.0 mph N/A   Clear
3:15 AM 64.4 °F 50.0 °F 59% 29.82 in 10.0 mi South 17.3 mph - N/A   Clear
3:55 AM 62.6 °F 50.0 °F 63% 29.83 in 10.0 mi South 12.7 mph - N/A   Clear
4:15 AM 62.6 °F 50.0 °F 63% 29.82 in 10.0 mi South 12.7 mph - N/A   Clear
4:35 AM 62.6 °F 50.0 °F 63% 29.83 in 10.0 mi South 11.5 mph - N/A   Clear
4:55 AM 62.6 °F 51.8 °F 68% 29.83 in 10.0 mi South 12.7 mph - N/A   Clear
5:15 AM 60.8 °F 51.8 °F 72% 29.83 in 10.0 mi SSE 12.7 mph - N/A   Clear
5:35 AM 60.8 °F 51.8 °F 72% 29.83 in 10.0 mi South 16.1 mph - N/A   Clear
5:55 AM 60.8 °F 51.8 °F 72% 29.82 in 10.0 mi SSE 15.0 mph - N/A   Clear
6:15 AM 60.8 °F 51.8 °F 72% 29.82 in 10.0 mi South 17.3 mph 20.7 mph N/A   Clear
6:35 AM 60.8 °F 51.8 °F 72% 29.83 in 10.0 mi South 17.3 mph - N/A   Clear
6:55 AM 60.8 °F 51.8 °F 72% 29.83 in 10.0 mi South 17.3 mph - N/A   Clear
7:15 AM 60.8 °F 51.8 °F 72% 29.83 in 10.0 mi South 18.4 mph 21.9 mph N/A   Clear
7:35 AM 60.8 °F 51.8 °F 72% 29.83 in 10.0 mi South 16.1 mph - N/A   Clear
7:55 AM 62.6 °F 51.8 °F 68% 29.83 in 10.0 mi South 17.3 mph 23.0 mph N/A   Clear
8:15 AM 62.6 °F 53.6 °F 72% 29.83 in 10.0 mi South 18.4 mph 24.2 mph N/A   Clear
8:35 AM 62.6 °F 53.6 °F 72% 29.83 in 10.0 mi South 20.7 mph 27.6 mph N/A   Clear
8:55 AM 64.4 °F 53.6 °F 68% 29.83 in 10.0 mi South 19.6 mph 31.1 mph N/A   Scattered Clouds
9:15 AM 64.4 °F 53.6 °F 68% 29.82 in 10.0 mi South 24.2 mph 33.4 mph N/A   Mostly Cloudy
9:35 AM 64.4 °F 53.6 °F 68% 29.82 in 10.0 mi South 27.6 mph 31.1 mph N/A   Overcast
9:55 AM 68.0 °F 53.6 °F 60% 29.81 in 10.0 mi South 25.3 mph 33.4 mph N/A   Mostly Cloudy
10:15 AM 68.0 °F 53.6 °F 60% 29.80 in 10.0 mi South 24.2 mph 35.7 mph N/A   Overcast
10:35 AM 68.0 °F 53.6 °F 60% 29.80 in 10.0 mi South 28.8 mph 35.7 mph N/A   Mostly Cloudy
10:55 AM 68.0 °F 53.6 °F 60% 29.80 in 10.0 mi South 24.2 mph 32.2 mph N/A   Scattered Clouds
11:15 AM 69.8 °F 53.6 °F 56% 29.79 in 10.0 mi South 29.9 mph 36.8 mph N/A   Mostly Cloudy
11:35 AM 68.0 °F 53.6 °F 60% 29.77 in 10.0 mi South 25.3 mph 34.5 mph N/A   Mostly Cloudy
11:55 AM 71.6 °F 53.6 °F 53% 29.77 in 7.0 mi South 28.8 mph 34.5 mph N/A   Scattered Clouds
12:15 PM 71.6 °F 53.6 °F 53% 29.76 in 7.0 mi South 25.3 mph 36.8 mph N/A   Scattered Clouds
12:35 PM 73.4 °F 53.6 °F 50% 29.74 in 7.0 mi South 28.8 mph 34.5 mph N/A   Scattered Clouds
12:55 PM 73.4 °F 53.6 °F 50% 29.73 in 7.0 mi South 27.6 mph 36.8 mph N/A   Scattered Clouds
1:15 PM 75.2 °F 53.6 °F 47% 29.71 in 7.0 mi South 31.1 mph 35.7 mph N/A   Clear
1:35 PM 73.4 °F 53.6 °F 50% 29.71 in 10.0 mi South 29.9 mph 34.5 mph N/A   Scattered Clouds
1:55 PM 77.0 °F 51.8 °F 41% 29.69 in 10.0 mi South 29.9 mph 36.8 mph N/A   Scattered Clouds
2:15 PM 77.0 °F 51.8 °F 41% 29.68 in 10.0 mi South 28.8 mph 36.8 mph N/A   Clear
2:35 PM 77.0 °F 51.8 °F 41% 29.68 in 10.0 mi South 27.6 mph 34.5 mph N/A   Clear
2:55 PM 77.0 °F 51.8 °F 41% 29.66 in 10.0 mi South 27.6 mph 36.8 mph N/A   Clear
3:15 PM 78.8 °F 50.0 °F 36% 29.66 in 10.0 mi South 25.3 mph 38.0 mph N/A   Clear
3:35 PM 78.8 °F 50.0 °F 36% 29.65 in 10.0 mi South 29.9 mph 35.7 mph N/A   Clear
4:15 PM 78.8 °F 50.0 °F 36% 29.65 in 10.0 mi SSE 26.5 mph 36.8 mph N/A   Clear
4:35 PM 77.0 °F 50.0 °F 39% 29.65 in 10.0 mi SSE 27.6 mph 34.5 mph N/A   Clear
5:15 PM 75.2 °F 50.0 °F 41% 29.65 in 10.0 mi SSE 25.3 mph 36.8 mph N/A   Clear
5:35 PM 73.4 °F 50.0 °F 44% 29.66 in 10.0 mi SSE 27.6 mph 36.8 mph N/A   Clear
5:55 PM 73.4 °F 50.0 °F 44% 29.67 in 10.0 mi SSE 23.0 mph 29.9 mph N/A   Clear
6:15 PM 71.6 °F 50.0 °F 46% 29.68 in 10.0 mi SSE 16.1 mph 25.3 mph N/A   Clear
6:35 PM 71.6 °F 51.8 °F 50% 29.67 in 10.0 mi SSE 19.6 mph 29.9 mph N/A   Clear
6:55 PM 71.6 °F 51.8 °F 50% 29.66 in 10.0 mi SSE 20.7 mph 27.6 mph N/A   Clear
7:15 PM 69.8 °F 51.8 °F 53% 29.65 in 10.0 mi SSE 21.9 mph 27.6 mph N/A   Clear
7:35 PM 69.8 °F 51.8 °F 53% 29.66 in 10.0 mi SSE 23.0 mph 27.6 mph N/A   Clear
7:55 PM 69.8 °F 51.8 °F 53% 29.65 in 10.0 mi SSE 23.0 mph 31.1 mph N/A   Clear
8:15 PM 69.8 °F 50.0 °F 49% 29.66 in 10.0 mi SSE 23.0 mph 29.9 mph N/A   Clear
8:35 PM 71.6 °F 50.0 °F 46% 29.66 in 10.0 mi SSE 21.9 mph 31.1 mph N/A   Clear
8:55 PM 71.6 °F 50.0 °F 46% 29.66 in 10.0 mi SSE 24.2 mph 31.1 mph N/A   Clear
9:15 PM 71.6 °F 50.0 °F 46% 29.66 in 10.0 mi South 26.5 mph 38.0 mph N/A   Clear
9:35 PM 69.8 °F 50.0 °F 49% 29.66 in 10.0 mi SSE 25.3 mph 34.5 mph N/A   Clear
9:55 PM 69.8 °F 50.0 °F 49% 29.66 in 10.0 mi SSE 25.3 mph 33.4 mph N/A   Clear
10:15 PM 69.8 °F 50.0 °F 49% 29.66 in 10.0 mi South 28.8 mph 34.5 mph N/A   Clear
10:35 PM 69.8 °F 50.0 °F 49% 29.67 in 10.0 mi South 26.5 mph 36.8 mph N/A   Clear
10:55 PM 69.8 °F 50.0 °F 49% 29.69 in 10.0 mi South 23.0 mph 32.2 mph N/A   Clear
11:15 PM 69.8 °F 50.0 °F 49% 29.71 in 10.0 mi SSW 15.0 mph - N/A   Mostly Cloudy
11:35 PM 69.8 °F 50.0 °F 49% 29.71 in 10.0 mi South 18.4 mph 23.0 mph N/A   Mostly Cloudy